Tracking 30995 objects as of 5-Jul-2025
HD Live streaming from Space Station
objects crossing your sky now

GALILEO 20 (2C6)

Track GALILEO 20 (2C6) now!
GALILEO 20 (2C6) is classified as:


NORAD ID: 43056
Int'l Code: 2017-079B
Perigee: 23,216.3 km
Apogee: 23,242.1 km
Inclination: 55.2 °
Period: 844.7 minutes
Semi major axis: 29600 km
RCS: Unknown
Launch date: December 12, 2017
Source: European Space Agency (ESA)
Launch site: FRENCH GUIANA (FRGUI)
Your satellite tracking list
SKYNET 5B
Track 1 satellite(s)




NASA's NSSDC Master Catalog

Two Line Element Set (TLE):
1 43056U 17079B   25185.46361434  .00000051  00000-0  00000-0 0  9990
2 43056  55.1866 231.0738 0004358 269.3728  90.6595  1.70474849 47078
Source of the keplerian elements: AFSPC